Flag for U.S.A. Weather past 2 weeks in Abilene, Texas, U.S.A.

Now
61 °F

Clear.


Feels Like: 61 °F
Forecast: 49 / 62 °F
Wind: 9 mph from Southwest

Location: Abilene Regional Airport

Current Time: Jan 29, 2015 at 12:28:54 AM

Latest Report: Jan 28, 2015 at 11:52 PM


Visibility: 10 mi

Pressure: 30.03 "Hg

Humidity: 52%

Dew point: 43 °F

Location of AbileneLocation

Historic Weather in Abilene — Graph

°F

Abilene temperature yesterday

Maximum temperature yesterday: 80 °F (at 2:52 PM)
Minimum temperature yesterday: 48 °F (at 2:52 AM)
Average temperature yesterday: 64 °F

Past Weeks' High & Low Weather Summary

 TemperatureHumidityPressure
High80 °F (Jan 28, 2:52 PM)100% (Jan 21, 2:52 PM)30.41 "Hg (Jan 21, 2:52 PM)
Low30 °F (Jan 14, 7:52 AM)14% (Jan 18, 2:52 PM)29.88 "Hg (Jan 20, 4:52 AM)
Average48 °F58%30.16 "Hg
* Reported Jan 13 10:52 PM — Jan 28 10:52 PM, Abilene, Weather by CustomWeather, © 2014

Note: Actual official high and low records may vary slightly from our data, if they occured in-between our weather recording intervals... More about our weather records

Advertising

Abilene weather history for previous 24 hours

 ConditionsComfort  
Time TempWeatherWind HumidityBarometerVisibility
10:52 PM
Jan 28
64 °FClear.14 mph49%30.01 "Hg10 mi
9:52 PM65 °FClear.10 mph47%30.00 "Hg10 mi
8:52 PM65 °FClear.10 mph47%29.99 "Hg10 mi
7:52 PM63 °FClear.8 mph50%29.98 "Hg10 mi
6:52 PM68 °FClear.7 mph42%29.97 "Hg10 mi
5:52 PM75 °FSunny.10 mph32%29.95 "Hg10 mi
4:52 PM80 °FSunny.14 mph27%29.94 "Hg10 mi
3:52 PM80 °FSunny.15 mph27%29.95 "Hg10 mi
2:52 PM80 °FSunny.14 mph28%29.96 "Hg10 mi
1:52 PM78 °FSunny.15 mph28%29.99 "Hg10 mi
12:52 PM74 °FSunny.17 mph29%30.02 "Hg10 mi
11:52 AM72 °FSunny.16 mph29%30.05 "Hg10 mi
10:52 AM72 °FSunny.17 mph28%30.06 "Hg10 mi
9:52 AM67 °FSunny.12 mph35%30.09 "Hg10 mi
8:52 AM59 °FSunny.7 mph46%30.07 "Hg10 mi
7:52 AM52 °FSunny.8 mph57%30.08 "Hg10 mi
6:52 AM52 °FClear.7 mph59%30.07 "Hg10 mi
5:52 AM51 °FClear.7 mph59%30.04 "Hg10 mi
4:52 AM52 °FClear.6 mph57%30.03 "Hg10 mi
3:52 AM50 °FClear.6 mph61%30.04 "Hg10 mi
2:52 AM48 °FClear.9 mph66%30.06 "Hg10 mi
1:52 AM49 °FClear.6 mph64%30.06 "Hg10 mi
12:52 AM51 °FClear.8 mph59%30.08 "Hg10 mi
Weather by CustomWeather, © 2014

See weather overviewHow to use our weather pages